Location: Newark
(41.5333°N, 14.5500°E)
Time: 19:59:56
(UTC+00:00)

N. Korean satellite - Visible Passes

Search period start: 25 January 2020 00:00
Search period end: 04 February 2020 00:00
Orbit: 454 x 507 km, 97.2° (Epoch: 25 January)

Date Brightness Start Highest point End Pass type
(mag) Time Alt. Az. Time Alt. Az. Time Alt. Az.
25 Jan 8.9 04:12:14 10° NE 04:15:15 25° E 04:18:16 10° SSE visible
25 Jan 7.9 05:45:50 10° NNW 05:48:29 20° WNW 05:51:08 10° WSW visible
26 Jan 10.0 03:48:00 10° ENE 03:49:35 12° E 03:51:10 10° ESE visible
26 Jan 7.0 05:19:46 10° N 05:23:08 39° WNW 05:26:31 10° SW visible
27 Jan 6.5 04:54:05 10° N 04:57:42 88° WNW 05:01:20 10° SSW visible
27 Jan 9.9 17:04:40 10° SW 17:06:28 14° W 17:08:17 10° WNW visible
28 Jan 7.9 04:28:44 10° NNE 04:32:10 41° E 04:35:38 10° S visible
28 Jan 8.9 16:37:49 10° SSW 16:40:48 28° W 16:43:49 10° NW visible
29 Jan 9.3 04:03:50 10° NE 04:06:34 20° E 04:09:19 10° SE visible
29 Jan 7.6 05:36:55 10° NNW 05:39:55 25° WNW 05:42:55 10° SW visible
30 Jan 6.7 05:11:01 10° N 05:14:31 51° WNW 05:18:05 10° SSW visible
31 Jan 6.8 04:45:26 10° NNE 04:49:04 72° E 04:52:43 10° S visible
31 Jan 9.7 16:55:23 10° SW 16:57:44 17° W 17:00:07 10° NW visible
01 Feb 8.5 04:20:12 10° NNE 04:23:31 32° E 04:26:50 10° SSE visible
02 Feb 9.7 03:55:31 10° NE 03:57:52 16° E 04:00:14 10° SE visible
02 Feb 7.4 05:28:04 10° N 05:31:19 31° WNW 05:34:36 10° SW visible
03 Feb 6.5 05:02:16 10° N 05:05:54 67° WNW 05:09:33 10° SSW visible
03 Feb 10.3 17:13:53 10° WSW 17:14:42 11° W 17:15:31 10° WNW visible
